Location: Innerarity Island Observatory
(30.3139°N, 87.4867°W)
Time: 11:24:43
(UTC-05:00)

JAS-2 - Visible Passes

Search period start: 30 May 2016 00:00
Search period end: 09 June 2016 00:00
Orbit: 801 x 1321 km, 98.6° (Epoch: 29 May)

Date Brightness Start Highest point End Pass type
(mag) Time Alt. Az. Time Alt. Az. Time Alt. Az.
30 May 11.6 00:31:46 10° NE 00:35:00 19° ENE 00:35:00 19° ENE visible
30 May 10.2 02:15:15 10° N 02:21:29 50° NW 02:21:29 50° NW visible
31 May 10.4 01:20:21 10° NNE 01:25:44 47° NE 01:25:44 47° NE visible
31 May 11.2 03:06:39 10° NNW 03:11:34 21° WNW 03:12:13 20° WNW visible
01 Jun 11.7 00:27:14 10° NE 00:30:00 17° ENE 00:30:00 17° ENE visible
01 Jun 10.1 02:10:24 10° N 02:16:28 53° NW 02:16:28 53° NW visible
02 Jun 10.5 01:15:35 10° NNE 01:20:43 43° ENE 01:20:43 43° ENE visible
02 Jun 11.1 03:01:41 10° NNW 03:06:42 22° WNW 03:07:12 21° WNW visible
03 Jun 11.7 00:22:45 10° NE 00:24:57 15° ENE 00:24:57 15° ENE visible
03 Jun 10.1 02:05:32 10° N 02:11:26 55° NW 02:11:26 55° NW visible
04 Jun 10.6 01:10:49 10° NNE 01:15:40 39° ENE 01:15:40 39° ENE visible
04 Jun 11.1 02:56:44 10° NNW 03:01:49 23° WNW 03:02:09 23° WNW visible
05 Jun 11.8 00:18:20 10° ENE 00:19:54 13° ENE 00:19:54 13° ENE visible
05 Jun 10.0 02:00:41 10° N 02:06:23 57° NNW 02:06:23 57° NNW visible
06 Jun 10.7 01:06:04 10° NNE 01:10:37 36° ENE 01:10:37 36° ENE visible
06 Jun 11.0 02:51:46 10° NNW 02:56:56 24° WNW 02:57:06 24° WNW visible
07 Jun 11.9 00:14:03 10° ENE 00:14:50 11° ENE 00:14:50 11° ENE visible
07 Jun 10.0 01:55:49 10° N 02:01:19 57° NNW 02:01:19 57° NNW visible
08 Jun 10.8 01:01:18 10° NNE 01:05:32 32° ENE 01:05:32 32° ENE visible
08 Jun 10.9 02:46:49 10° NNW 02:52:01 25° WNW 02:52:01 25° WNW visible
